Simultaneous Nadir Overpasses (SNOs) Predictions

Prediction of SNOs between METOP-B and TERRA Satellite Orbit:

Table of predicted SNOs for the next 14.0 days since TLE Epoch: 1/4/2014
Index Date (METOP-B) Time (METOP-B) Lat,Lon (METOP-B) SZA (METOP-B ) Date (TERRA) Time (TERRA) Lat,Lon (TERRA) SZA (TERRA ) Distance(km) Time Diff (sec)
1 01/05/2014 09:45:48 -81.29, -99.76 73.69 01/05/2014 09:46:24 -81.28, -99.94 73.70 3.33 36
2 01/05/2014 10:36:28 81.29, 67.73 106.33 01/05/2014 10:35:50 81.28, 67.82 106.32 1.57 38
3 01/08/2014 05:20:11 -81.28, -33.50 74.09 01/08/2014 05:20:38 -81.28, -33.37 74.06 2.26 27
4 01/08/2014 06:10:50 81.29, 134.39 105.98 01/08/2014 06:10:04 81.29, 134.36 105.95 0.70 46
5 01/11/2014 00:54:32 -81.29, 33.08 74.50 01/11/2014 00:54:51 -81.28, 33.00 74.51 1.46 19
6 01/1
